Location: Fazenda Monte Alegre
(4.8500°S, 38.0333°W)
Time: 15:34:22
(UTC+00:00)

ARIANE 5 R/B - Pass Details

Date: 24 September 2020
Orbit: 269 x 32906 km, 6.4° (Epoch: 19 October)

Event Time Altitude Azimuth Distance (km) Brightness Sun altitude
Rises 22:15:20 0° 268° (W) 15,678 10.5 -27.7°
Reaches altitude 10° 22:37:57 10° 267° (W) 8,498 8.6 -33.3°
Enters shadow 22:54:49 60° 256° (WSW) 1,332 3.7 -37.5°
